Location: ??????
(55.2000°N, 38.3000°E)
Time: 00:33:19
(UTC+00:00)

Aureole 3 Rocket - Pass Details

Date: 15 November 2025
Orbit: 398 x 1690 km, 82.5° (Epoch: 12 December)

Event Time Altitude Azimuth Distance (km) Brightness Sun altitude
Exits shadow 02:34:35 - 346° (NNW) 2,322 5.8 -20.3°
Reaches altitude 10° 02:35:05 10° 346° (NNW) 2,125 5.6 -20.3°
Maximum altitude 02:39:49 79° 260° (W) 867 3.6 -19.6°
Drops below altitude 10° 02:46:28 10° 175° (S) 2,949 6.6 -18.6°
Sets 02:49:32 0° 175° (S) 4,116 7.4 -18.2°
